Location: Piolenc
(44.1794°N, 4.7641°E)
Time: 04:47:41
(UTC+00:00)

Okean O Rocket - Pass Details

Date: 27 January 2021
Orbit: 622 x 645 km, 98.2° (Epoch: 27 February)

Event Time Altitude Azimuth Distance (km) Brightness Sun altitude
Rises 06:28:49 0° 11° (N) 2,923 4.9 -6.7°
Reaches altitude 10° 06:31:02 10° 9° (N) 2,008 4.1 -6.3°
Maximum altitude 06:35:23 71° 286° (WNW) 662 1.5 -5.6°
Drops below altitude 10° 06:39:40 10° 203° (SSW) 1,986 4.2 -4.8°
Sets 06:41:51 0° 201° (SSW) 2,887 5.0 -4.5°
